Simultaneous Nadir Overpasses (SNOs) Predictions

Prediction of SNOs between GOES-16 and NPP Satellite Orbit:

Table of predicted SNOs for the next 14.0 days since TLE Epoch: 11/9/2024
Index Date Time (GOES-16) GOES-16 Lat,Lon NPP Lat,Lon Distance(km) Time Diff (sec)
1 11/09/2024 06:38:04 0.01, -75.20 0.61, -77.89 306.33 80
2 11/10/2024 06:16:39 0.01, -75.20 -0.39, -73.35 211.00 80
3 11/11/2024 18:38:34 -0.01, -75.23 -0.80, -78.65 390.39 80
4 11/12/2024 18:22:30 -0.01, -75.24 0.26, -74.12 127.57 80
5 11/14/2024 06:44:16 0.01, -75.24 0.92, -79.39 471.74 80
6 11/15/2024 06:22:51 0.01, -75.25 -0.10, -74.85 46.36 80
7 11/17/2024 18:26:00 -0.01, -75.29 -0.09, -75.61 36.11 80
8 11/18/2024 18:09:54 -0.01, -75.31 0.94, -71.08 482.37 80
9 11/20/2024 06:31:39 0.00, -75.32 0.26, -76.33 115.75 80
10 11/21/2024 06:10:14 0.00, -75.34 -0.78, -71.80 403.23 80
11 11/22/2024 18:32:08 0.00, -75.38 -0.40, -77.09 195.73 80
